STARLINK-1413, 45689

Orbit data source: Space-Track

STARLINK-1413, 45689 is a payload satellite owned by SpaceX/Seattle (US) in LEO that was launched on Thu, 04 Jun 2020 UTC via an FALCON 9 launch vehicle from the Air Force Eastern Test Range (AFETR). Payload-class satellites include a variety of spacecraft equipped with specific instruments for various scientific and technological missions. These include communications satellites like Starlink; space stations such as the ISS; scientific satellites like the Hubble; Earth observation satellites from companies like Planet Labs, Umbra, and HawkEye 360; GPS; miniature CubeSats for education and research; and military/defense satellites.

Loading next visibility...
Identifier
45689, 2020-035AJ
Orbit
LEO
Country
Flag of USUS
Related business
Manufacturer
SpaceX/Seattle
Mission
Operational Commercial Communications
Bus & Motor
STARLINK, Unknown motor
Mass
260 kg wet, ~248 kg dry
Launch date (UTC)
2020-06-04 (5 years ago)
Launch vehicle
FALCON 9
Launch site
Air Force Eastern Test Range (AFETR)
Object type
Payload
Rocket body
Debris
Shape & HBR
Box + 1 Pan, 10.1 m
Radar Cross Section
13.562 m², Large (>1 m²)

Expand to show TLE details & history
Last TLE update: 9 hours ago

TLE from 9 hours ago
0 STARLINK-1413
1 45689U 20035AJ  25309.88412103  .00001347  00000-0  10932-3 0  9991
2 45689  53.0551 252.4012 0001469  82.6466 277.4690 15.06397582300128
Epoch: 2025-11-05T21:13Z
TLE epoch observation values (Epoch: 2025-11-05T21:13:08.056Z)
Latitude
0.00001°
Longitude
-111.23275°
Altitude
547.966 km
Speed
7.589 km/s
True Right ascension
16h 49m 36s
True Declination
0° 00' 00"
Sunlit
Object was in daylight at epoch
Visualization orbit readout
Latitude
Unknown
Longitude
Unknown
Altitude
Unknown
Speed
Unknown
Apparent Right ascension
Unknown
Apparent Declination
Unknown
Sunlit
N/A
Visualization observer readout
Local Sidereal Time
02:14:49
Azimuth
Unknown
Elevation
Unknown
Doppler factor
Unknown
Orbital elements
Apogee altitude
548.507 km
Perigee altitude
546.472 km
Semi-major axis
6,925.627 km
Eccentricity
0.00015
Inclination
53.0551°
RAAN
252.4012°
Arg. of periapsis
82.6466°
True anomaly
277.45231°
Mean anomaly
277.469°
Eccentric anomaly
277.46065°
Mean motion
3.76578 °/min
Orbital period
95.6 mins
BSTAR
0.00010932
Loading maneuver chart data...
Computing Atmospheric mass density...

Documentation

Showing up to 5 results
|